Theta_e
296 296 296 296 296 296 295 295 295 295 294 295 295 296 296 296 296 298 297 293 290 291 292 291 292 292 291 290 290 290 290 289 289 289 289 289 289 288 287 286 286 286 286 287 287 287 288 287 287 287 286 289 292 293 293 294 294 294 293 292 291 290 291 292 293 293 293 292 293 293 292 292 293 294
296 296 295 295 295 295 295 295 295 294 295 294 294 295 295 295 295 296 296 295 292 292 292 292 293 293 292 291 291 290 290 290 290 290 289 289 289 288 287 286 286 286 286 286 287 287 287 287 287 287 286 287 288 290 291 291 291 291 290 289 289 290 291 292 293 292 292 292 292 291 291 292 293 293
295 295 295 295 295 295 295 295 295 294 294 294 294 294 294 294 295 295 295 295 294 293 293 293 294 294 293 292 291 290 290 290 290 290 290 289 289 288 287 286 286 286 286 286 287 287 287 287 287 286 286 286 287 288 289 289 289 289 288 287 287 289 291 292 292 291 291 290 290 289 290 292 292 292
294 294 294 294 294 295 294 294 294 294 294 294 294 294 294 294 294 294 293 294 294 294 294 295 295 295 294 292 291 290 290 290 290 290 290 289 289 289 287 286 285 286 286 286 286 287 287 287 287 286 286 286 287 287 288 289 289 288 287 287 286 288 290 291 291 290 289 288 287 288 289 291 291 291
293 293 293 294 294 294 294 294 294 294 294 294 293 293 294 293 294 294 293 293 293 293 294 294 294 294 293 291 291 291 290 290 290 290 290 290 289 289 288 286 285 285 285 285 286 286 287 287 287 286 286 286 286 287 287 288 288 288 287 286 286 288 290 290 290 289 288 287 286 287 289 290 290 290
292 292 292 293 293 293 293 293 293 293 293 293 293 293 293 293 293 293 293 292 292 292 292 293 293 293 292 291 291 291 290 290 290 289 290 290 289 289 288 286 285 285 285 285 286 286 287 287 286 286 286 286 286 286 286 287 287 287 287 286 286 287 289 289 289 289 288 287 286 287 288 290 290 290
291 291 291 292 292 292 292 292 292 293 293 293 293 293 292 292 292 292 293 292 291 291 291 292 292 291 291 290 291 291 291 291 290 289 289 289 289 289 288 287 286 285 285 285 285 286 286 287 286 286 286 286 286 286 286 285 285 285 285 286 285 286 287 287 287 288 287 286 286 287 288 289 289 289
290 290 290 291 291 291 291 291 291 292 292 292 292 292 292 292 291 291 292 292 292 291 291 291 291 291 291 291 291 290 290 289 289 289 289 288 288 288 288 287 286 286 285 285 285 285 286 286 286 286 286 285 286 286 286 285 285 285 285 285 285 285 286 286 286 286 285 284 285 287 288 288 288 289
288 289 290 290 290 290 290 290 291 291 291 291 291 291 291 291 291 291 291 291 291 291 290 290 291 291 291 290 290 289 289 288 288 288 287 287 287 287 287 287 286 286 286 285 285 284 285 286 286 286 286 285 285 286 286 285 284 284 284 284 284 285 285 285 285 285 284 283 283 285 286 287 287 287
286 288 289 289 289 289 289 290 290 290 290 291 291 291 291 291 291 290 290 290 290 290 290 290 290 290 289 289 288 288 289 288 287 286 286 286 286 286 286 286 286 286 286 285 285 284 284 285 285 286 286 285 285 286 286 285 284 284 284 284 284 284 284 284 284 284 283 283 283 283 284 286 287 286
285 285 286 287 288 289 289 289 289 289 290 290 290 290 290 290 290 290 290 290 290 289 289 289 289 289 289 289 288 288 288 287 287 286 284 284 284 285 285 285 285 286 285 285 284 284 284 284 285 285 286 285 284 285 286 285 284 284 284 284 284 284 283 283 284 283 283 283 283 283 283 284 285 285
284 284 285 285 286 287 288 288 289 289 289 289 290 290 290 290 290 289 289 289 289 289 289 288 288 288 288 288 287 287 286 285 285 285 284 283 284 284 285 285 285 285 284 284 284 284 284 284 284 284 285 284 284 284 285 285 284 284 284 284 283 283 283 283 283 283 283 283 282 282 283 283 283 284
284 284 284 284 285 285 286 287 288 289 289 289 289 289 289 289 289 289 289 289 289 289 289 288 288 287 286 287 286 285 285 285 285 284 284 284 284 284 283 283 284 284 283 283 283 283 283 283 284 284 284 284 284 284 285 285 284 284 284 284 283 283 283 283 282 282 282 282 282 282 283 282 282 282
284 284 284 284 284 285 285 285 286 288 288 289 289 289 289 289 289 289 289 289 289 289 288 289 288 286 285 286 286 285 285 286 285 285 284 284 284 283 282 282 282 282 283 283 282 283 283 283 283 283 283 284 284 284 284 284 284 284 284 283 283 283 283 282 282 282 282 282 282 282 282 282 282 282
284 284 284 284 284 285 285 285 285 286 287 288 288 289 289 289 289 289 289 289 289 289 289 289 289 287 286 286 286 286 286 286 285 285 284 284 284 283 282 282 282 282 282 282 282 283 283 283 283 283 283 284 284 284 284 284 284 284 284 283 283 283 282 282 282 282 282 282 281 282 282 282 281 282
284 284 284 284 284 284 285 285 285 285 286 287 288 288 289 289 289 289 289 289 289 289 289 289 289 288 287 287 286 286 286 285 285 285 284 284 284 283 283 283 283 283 283 282 282 283 283 283 282 283 283 284 284 284 284 284 283 283 283 283 282 282 282 282 282 282 282 281 281 281 281 281 281 281
283 283 283 284 284 284 284 285 285 285 286 286 287 288 288 288 289 289 289 289 289 289 289 289 289 289 289 288 287 286 286 286 285 285 284 284 284 284 283 284 284 284 284 283 282 282 283 282 282 282 283 284 284 284 284 284 283 283 282 282 282 281 281 281 281 281 281 281 281 281 280 280 280 281
283 283 283 283 284 284 284 284 285 285 286 286 286 287 287 288 288 288 288 289 289 289 289 289 289 289 289 289 288 287 286 286 285 285 285 284 284 284 284 285 285 285 285 285 283 282 282 282 282 282 283 284 284 284 284 284 282 282 281 281 281 281 281 281 280 281 281 280 280 280 280 280 280 280
282 282 283 283 283 284 284 284 284 285 285 286 286 286 287 287 288 288 288 288 289 289 289 289 289 289 289 289 289 288 287 286 286 287 286 286 285 285 285 285 284 284 284 284 284 283 282 282 281 282 283 283 283 283 283 283 282 281 281 281 281 280 280 280 280 280 280 280 279 279 279 280 279 280
280 280 281 282 283 283 284 284 284 284 285 285 286 286 286 287 287 287 288 288 288 288 289 289 289 289 289 289 289 288 287 286 286 286 286 286 285 285 284 284 284 283 283 283 283 283 283 282 282 282 282 282 282 282 282 282 281 281 280 281 281 280 280 280 279 280 279 279 279 279 279 279 279 279
278 278 279 280 281 282 283 283 284 284 285 285 286 286 286 286 286 287 287 287 288 288 288 288 289 289 289 289 289 289 288 287 286 285 285 285 285 284 284 284 283 283 283 283 283 283 282 282 282 281 281 281 281 281 281 281 281 280 280 280 280 280 280 279 279 279 279 278 278 279 279 279 279 279
275 276 276 277 278 280 281 282 283 284 285 285 286 286 286 286 286 286 287 287 287 287 287 288 288 288 288 289 289 289 288 287 286 285 285 285 285 284 284 285 284 282 282 283 283 283 282 282 281 281 280 280 280 280 280 280 280 280 281 280 280 280 280 279 280 280 279 278 278 279 279 278 278 278
274 274 275 275 276 277 279 281 282 284 284 285 285 285 286 286 286 286 286 286 287 287 287 287 287 288 288 288 288 289 289 288 287 285 285 285 285 284 285 285 284 283 283 282 283 283 282 281 281 280 280 279 279 279 280 280 280 280 281 281 281 280 280 280 281 280 279 278 278 278 278 278 278 278
273 274 274 274 274 275 276 278 280 282 284 285 285 285 285 286 286 286 286 286 287 287 287 287 287 287 287 288 288 288 288 288 288 286 285 285 285 285 285 285 285 284 284 283 283 283 282 281 281 280 281 281 279 278 278 279 279 279 280 281 281 280 280 280 282 281 279 277 278 277 278 278 278 278
273 273 273 273 273 273 274 276 277 280 282 284 285 285 285 285 285 286 286 286 286 287 287 286 287 287 287 287 287 287 288 288 288 287 286 285 285 285 285 285 285 285 285 284 283 283 282 281 281 280 280 280 279 278 277 278 278 278 280 280 280 279 279 280 282 281 279 277 277 277 277 278 278 278
272 273 273 273 273 274 274 275 276 278 280 282 285 286 286 286 285 286 286 286 286 286 286 286 286 286 286 286 286 287 287 287 288 288 287 286 285 285 285 286 285 285 284 283 283 284 282 281 281 280 280 279 278 278 277 277 277 277 278 278 278 278 279 280 281 280 278 276 277 277 277 277 277 277
272 272 272 273 274 274 275 276 277 277 279 281 283 285 286 287 287 286 286 286 286 286 286 286 286 286 286 286 286 286 286 286 287 287 287 287 286 285 285 285 286 286 285 284 283 283 283 281 281 281 280 279 278 277 277 276 276 277 277 277 277 277 278 279 279 279 277 276 277 277 277 276 277 277
270 270 270 271 272 274 275 276 277 278 279 280 282 284 285 286 287 287 287 287 287 286 286 286 286 286 286 286 285 285 286 286 286 286 286 286 286 286 285 285 285 285 285 284 283 283 283 282 282 281 281 280 279 278 278 277 276 276 276 276 276 276 277 278 277 277 276 276 276 276 276 276 276 276
270 270 271 271 272 273 274 276 277 279 280 280 281 283 284 285 286 287 288 287 287 286 286 286 286 286 286 285 285 285 285 285 285 285 285 285 285 285 284 284 284 284 284 284 283 283 283 283 282 281 281 280 280 279 278 277 276 276 276 276 276 276 276 276 276 276 276 276 276 276 277 277 276 276
270 271 271 272 272 273 274 275 277 278 280 281 281 282 284 285 285 286 287 287 287 287 286 286 286 286 286 286 285 285 285 285 284 284 284 284 283 283 282 282 281 282 282 282 283 283 282 282 281 281 280 279 279 279 278 277 276 275 276 276 275 275 275 275 275 275 275 276 276 276 277 276 276 276
269 270 270 271 272 273 274 275 276 277 279 281 282 282 283 284 284 285 285 286 287 287 287 286 286 286 286 285 285 285 284 284 284 284 283 282 282 281 281 280 279 279 280 280 281 281 281 280 280 280 280 279 278 278 277 277 276 275 275 275 275 275 275 274 274 275 275 276 276 276 275 275 275 275
269 270 271 272 273 273 274 275 276 277 278 280 282 283 283 283 284 284 285 286 287 287 287 286 286 286 285 285 284 284 283 283 283 283 282 281 280 279 279 279 277 276 277 277 278 279 279 279 279 279 279 278 278 277 277 276 275 275 275 275 275 276 276 275 274 275 275 275 275 274 274 274 274 274
272 272 273 273 274 274 275 275 276 277 278 280 282 283 284 284 284 284 285 285 286 287 287 286 286 286 285 284 284 283 283 282 282 282 281 281 279 278 278 278 277 275 275 275 276 276 277 277 277 278 278 278 278 278 277 276 275 274 275 275 275 275 275 275 275 275 275 274 274 273 273 273 273 274
273 274 274 274 274 274 275 275 276 276 278 280 281 283 283 283 284 284 284 285 285 286 286 286 286 286 285 284 283 282 282 282 281 281 280 280 278 277 277 278 276 275 275 275 274 275 275 275 276 276 276 276 276 277 277 276 275 274 274 274 274 274 274 275 275 274 274 274 274 273 273 273 273 273
274 274 274 274 274 274 275 275 276 276 277 279 280 282 282 283 283 283 284 284 285 285 286 286 286 285 285 284 282 281 281 281 280 279 279 278 277 277 277 277 275 274 274 273 273 274 274 274 274 274 273 274 274 274 275 275 275 274 273 273 274 274 274 274 274 273 273 273 273 273 272 272 272 273
274 274 274 274 274 274 275 275 276 276 277 278 279 281 282 282 282 283 283 284 284 285 285 286 285 285 284 283 282 281 281 280 278 277 277 277 276 276 277 276 274 273 273 272 272 273 273 273 273 273 272 272 273 273 273 274 274 275 274 273 273 273 274 273 273 273 273 272 272 272 272 272 272 272
274 274 274 274 274 274 274 275 275 276 276 277 279 280 281 282 282 283 283 284 284 285 285 285 285 284 284 283 281 280 279 278 277 276 276 276 275 276 276 275 274 273 272 272 272 272 272 272 273 273 273 272 273 273 273 272 273 274 274 274 273 273 273 273 272 272 272 272 272 271 271 271 272 272
274 274 274 274 274 274 274 274 275 276 276 277 278 280 281 281 281 282 282 283 284 284 284 284 284 284 283 282 280 279 278 277 276 275 275 275 275 275 275 275 274 272 272 272 271 271 271 272 272 272 273 273 273 273 273 272 272 273 273 274 274 273 273 272 272 271 271 271 271 271 271 271 271 271
274 274 274 274 274 274 274 275 275 275 276 276 277 279 280 281 281 281 282 282 283 284 284 284 284 283 282 281 279 278 277 276 275 275 275 274 274 275 275 274 273 272 272 271 271 270 270 271 271 272 273 274 274 274 274 273 272 273 272 272 273 273 272 272 271 271 271 271 271 271 270 270 270 271
274 275 275 275 275 275 274 274 274 275 275 276 277 278 280 281 282 282 282 282 283 283 283 283 283 282 280 279 278 277 276 276 275 275 274 274 274 274 275 274 273 272 272 271 270 270 270 270 271 271 272 273 274 274 274 273 272 272 272 272 272 272 272 272 272 271 271 271 270 270 270 270 270 270
275 276 276 276 276 275 275 275 275 275 276 277 278 279 280 281 282 282 282 282 282 282 282 282 281 280 279 278 278 277 276 275 275 275 274 274 274 274 274 274 273 272 272 271 271 270 270 270 271 271 272 272 273 273 273 272 271 271 272 272 272 272 272 272 272 271 271 270 270 270 270 270 270 269
274 275 275 276 277 276 275 275 275 276 276 277 278 279 280 281 281 281 281 281 282 281 281 280 279 279 278 278 277 276 276 275 275 274 274 273 273 273 273 273 272 272 272 271 271 271 271 271 271 271 271 272 272 272 272 271 271 271 271 272 272 271 271 271 271 271 270 270 270 270 270 269 269 269
272 273 274 276 277 277 276 276 276 277 277 278 279 280 280 281 281 281 281 281 280 280 280 279 278 278 277 277 276 276 275 275 274 273 273 273 273 273 273 272 272 272 272 271 271 271 271 270 270 271 271 271 272 272 271 270 270 269 270 270 270 270 270 270 270 270 270 270 270 270 270 270 269 269
269 270 272 275 277 277 277 277 277 278 278 279 279 280 280 281 280 280 280 280 279 279 278 278 277 277 276 276 275 275 274 274 273 273 272 272 273 272 272 272 272 271 271 271 270 270 270 270 270 270 270 270 271 271 270 269 269 269 269 269 269 269 269 269 269 269 269 269 269 269 269 269 269 269
267 268 270 272 274 276 277 277 278 278 279 279 279 280 280 279 279 279 279 278 278 278 277 276 276 275 275 275 274 274 273 273 272 272 272 272 272 272 272 271 271 271 270 270 270 270 270 270 270 270 270 270 270 270 269 269 268 268 268 268 268 268 268 268 268 267 267 267 268 267 267 267 268 268
Wind_Speed
30 30 31 33 36 37 35 34 33 34 37 37 36 35 30 21 10 6 6 5 9 21 28 28 31 38 41 41 40 40 41 40 39 38 37 36 35 35 34 32 31 30 29 27 26 25 24 22 21 22 22 21 18 16 15 17 20 20 18 16 14 13 12 10 9 8 7 6 6 6 6 6 5 4
29 31 32 32 34 35 35 36 35 32 33 34 35 36 36 32 22 12 8 9 13 20 28 33 33 35 40 42 42 42 42 42 41 40 39 38 37 36 35 34 32 31 30 29 28 26 25 24 23 23 24 24 23 21 19 20 21 19 17 15 13 13 11 9 7 7 6 5 5 7 7 6 5 5
29 30 32 33 34 34 34 35 36 34 33 32 33 34 35 35 33 26 13 9 15 21 26 33 36 36 38 41 43 43 43 43 43 42 41 40 38 37 36 35 33 32 31 30 29 28 27 26 25 24 24 24 24 23 21 20 19 18 16 15 14 13 11 9 9 8 8 7 7 8 7 6 5 4
28 30 32 33 34 34 35 36 36 35 35 34 33 33 33 33 35 34 23 11 13 21 26 31 35 37 38 40 42 44 44 44 44 43 43 42 40 38 38 37 35 33 32 31 30 30 29 28 27 26 26 25 24 23 21 19 17 18 17 16 15 13 11 12 12 11 11 10 9 9 8 6 5 4
28 30 32 33 34 33 35 36 36 36 35 34 35 34 34 34 33 32 27 18 13 17 25 28 30 34 37 39 41 43 44 44 44 44 44 43 42 41 41 40 38 35 33 32 31 31 30 30 29 28 27 26 25 24 22 20 18 18 18 17 15 13 11 11 11 10 10 10 10 9 8 5 4 4
28 30 32 33 33 32 34 36 36 36 35 34 35 35 34 34 34 32 30 24 16 15 21 27 28 31 35 38 40 43 45 45 46 46 46 45 44 43 43 43 41 38 35 33 32 32 31 31 31 29 27 26 26 24 24 22 21 20 19 18 17 16 13 11 11 10 9 9 10 9 8 6 6 4
28 30 32 33 33 32 33 35 36 36 36 35 35 36 35 35 34 34 32 29 22 17 19 25 29 30 34 38 40 43 45 45 45 46 46 47 46 45 45 45 44 41 37 35 34 33 33 33 32 31 28 27 26 25 24 24 23 23 21 19 19 19 17 16 15 11 10 11 11 10 9 8 7 6
27 29 31 32 32 31 32 34 35 35 35 35 35 35 35 35 34 33 32 32 30 23 19 23 29 32 34 38 40 41 42 42 43 44 45 45 46 46 46 46 46 44 40 37 35 35 35 34 34 32 29 28 27 26 25 26 25 24 23 22 21 19 18 18 17 14 13 14 13 12 10 8 8 7
27 28 30 32 32 31 32 33 33 33 34 34 34 35 35 34 34 32 32 34 34 29 24 23 26 30 33 34 36 39 41 40 39 40 41 43 44 44 45 45 46 45 42 39 37 36 35 34 34 33 32 30 29 27 27 28 27 26 25 24 22 21 19 18 19 17 15 15 14 14 12 9 8 8
29 29 30 31 31 31 32 33 33 32 33 33 33 35 35 33 32 32 32 33 33 31 30 26 25 29 32 32 32 37 41 41 39 39 38 39 41 42 43 44 45 46 45 42 39 37 36 35 34 34 34 32 30 29 28 29 29 28 27 25 24 22 21 20 19 17 16 16 15 14 13 12 10 9
31 31 31 31 32 32 33 34 34 32 32 32 33 34 34 32 30 31 31 31 30 30 30 27 25 28 32 33 32 35 40 40 39 38 34 32 36 40 43 45 45 46 45 43 41 39 38 36 35 35 35 34 32 30 30 29 30 29 28 27 25 23 23 21 20 19 18 18 16 16 15 14 13 11
35 35 34 33 33 33 33 34 34 33 32 31 31 32 31 30 30 31 31 29 28 29 28 27 26 26 28 31 29 28 32 33 33 34 33 32 37 42 45 45 45 45 45 43 41 40 38 36 36 36 36 35 34 32 31 30 31 31 30 28 27 25 23 22 21 20 20 19 18 17 17 16 15 13
37 37 37 37 36 35 35 34 34 34 33 32 33 32 29 27 29 30 30 28 27 27 26 25 24 22 24 29 29 26 32 37 35 34 35 35 37 39 38 40 43 42 42 42 41 41 40 39 38 38 37 37 36 34 33 32 32 32 31 30 28 26 24 23 22 21 21 20 20 18 18 17 15 14
38 38 38 38 38 37 36 35 35 34 34 35 36 35 32 29 29 29 29 28 28 26 24 24 23 19 20 28 32 32 37 40 35 34 36 35 31 28 26 29 35 39 39 38 40 42 42 41 40 40 41 40 38 37 36 36 36 35 33 32 30 27 26 24 23 23 22 21 20 19 18 17 16 15
39 39 38 39 39 38 38 37 36 35 35 35 36 37 36 35 34 32 30 29 29 27 24 26 25 21 23 30 34 34 35 35 34 36 37 33 28 26 22 19 24 36 42 39 37 41 44 43 43 43 44 42 41 40 40 39 38 37 34 32 31 28 27 26 25 24 23 22 22 21 19 18 17 16
40 39 39 39 39 39 39 39 38 36 35 35 34 35 37 38 39 39 37 34 32 29 27 27 27 27 28 30 32 34 34 34 35 34 33 34 34 31 27 23 23 34 44 42 36 40 44 44 44 44 45 45 43 42 42 40 40 38 34 32 31 30 29 28 26 25 24 23 23 22 21 19 18 17
40 40 40 39 39 40 40 39 38 37 36 35 34 34 36 37 40 42 43 42 40 36 33 30 31 34 34 30 30 35 36 34 34 32 32 36 36 31 31 34 31 30 40 46 39 35 41 44 44 44 46 46 45 44 43 42 40 38 34 32 31 31 30 28 27 26 25 25 24 23 22 21 20 19
41 41 40 39 40 41 40 39 38 38 37 35 34 34 35 38 40 41 43 45 45 44 40 36 38 40 37 33 31 33 37 39 38 38 38 37 37 36 38 39 33 29 39 49 39 28 35 42 42 43 46 46 46 46 43 42 41 37 33 32 32 31 30 28 27 26 26 25 25 23 22 22 21 19
41 41 41 40 41 42 42 41 40 39 38 36 35 35 36 37 39 40 42 44 45 45 44 43 45 45 40 36 34 32 36 43 45 45 44 42 41 42 39 35 31 29 37 45 35 21 28 40 41 42 46 45 44 45 43 41 41 37 33 33 33 32 30 28 27 26 26 26 25 24 23 22 21 19
42 41 41 41 41 42 43 43 43 42 40 38 36 36 37 37 38 39 42 43 44 44 44 45 48 48 44 39 36 34 34 40 45 43 39 38 37 34 28 26 28 28 32 41 39 23 21 35 40 37 38 40 41 42 42 41 40 38 35 34 34 33 30 29 27 26 26 26 25 24 23 22 21 20
42 42 42 42 42 43 44 45 45 43 41 39 38 37 37 37 37 38 41 41 41 42 44 45 47 49 47 43 40 37 34 37 42 40 33 34 35 28 18 16 22 27 29 39 43 27 18 30 37 30 29 35 36 37 41 42 39 37 36 36 35 34 31 29 27 26 26 26 24 23 23 22 21 20
43 44 44 44 44 44 45 46 45 42 40 39 39 38 37 35 34 37 39 38 37 38 41 44 46 48 48 45 42 41 38 37 39 42 40 38 35 28 21 18 19 23 29 39 43 29 19 26 32 25 20 23 29 32 37 40 39 35 34 35 35 34 32 29 28 27 26 25 24 23 23 21 21 20
44 45 46 45 44 45 46 47 46 43 42 41 40 39 36 33 33 38 39 36 34 35 37 40 43 45 46 45 44 44 43 39 39 45 47 43 37 32 31 26 17 12 20 37 44 31 20 25 32 28 18 10 16 27 32 35 37 36 34 35 34 32 31 29 27 28 28 26 25 24 23 22 21 21
40 42 43 45 46 46 47 48 48 47 45 44 43 41 37 34 36 40 39 35 34 35 37 38 39 40 41 42 41 43 45 43 42 45 47 45 42 39 36 31 24 17 20 33 44 35 23 25 33 33 23 9 7 21 31 34 37 37 36 36 35 32 30 28 26 28 29 26 24 23 22 22 22 21
39 42 43 45 45 44 45 47 48 48 48 47 46 45 42 41 43 43 39 35 34 35 36 36 35 35 35 36 36 39 42 44 45 45 45 45 45 43 39 34 31 29 25 30 44 42 29 27 32 33 26 13 8 18 26 29 34 38 38 38 37 33 31 29 29 31 30 26 24 23 22 22 22 22
36 39 40 40 41 41 42 44 46 47 49 48 47 47 47 47 48 46 41 37 34 33 32 32 31 32 31 31 33 36 38 42 44 45 45 45 45 45 44 39 35 33 28 27 40 46 36 31 35 34 27 17 12 18 23 23 28 35 35 35 35 34 32 33 34 35 32 27 24 24 23 22 22 21
35 36 36 37 38 40 41 42 44 45 47 48 48 47 45 45 47 46 42 37 33 31 30 29 28 29 30 30 31 34 37 39 42 44 44 45 45 44 44 42 40 38 33 28 37 46 41 35 37 39 34 24 15 15 19 20 23 31 34 34 34 34 34 36 36 34 31 27 25 24 23 22 22 20
39 38 39 40 42 42 43 44 45 45 46 47 49 48 45 44 44 42 38 35 33 30 28 27 27 28 30 31 32 34 36 37 38 40 40 41 43 43 44 44 42 40 36 32 37 47 46 40 40 42 41 34 24 17 16 18 24 33 35 32 32 34 35 35 34 33 30 27 25 24 24 24 23 21
42 42 43 44 45 45 44 44 44 44 45 46 47 47 46 44 42 39 36 33 31 29 27 27 27 28 30 32 34 35 35 33 32 34 35 35 37 38 39 39 39 38 37 35 38 45 48 45 43 42 40 37 32 26 22 21 27 37 38 34 32 33 34 34 33 32 29 27 25 25 24 23 22 21
43 44 43 43 41 40 39 39 41 41 42 44 45 46 46 44 41 37 34 32 30 28 27 27 28 31 32 33 34 32 30 30 31 32 32 31 31 33 32 31 29 29 30 31 36 43 47 45 42 41 39 34 30 28 26 25 27 32 35 37 33 28 29 32 32 30 28 26 24 23 21 20 20 19
43 43 42 41 41 39 39 40 41 42 42 41 42 43 43 42 41 37 35 34 32 30 30 29 30 33 32 30 29 29 28 30 31 32 32 31 30 30 30 26 22 22 24 27 32 40 44 42 39 40 40 34 27 25 25 27 29 29 30 35 32 26 29 35 32 28 27 24 21 20 18 17 18 17
41 41 40 40 39 38 37 37 37 38 40 38 36 37 38 38 39 38 36 35 33 33 32 30 29 30 29 27 28 28 29 30 31 32 33 32 31 31 29 24 20 19 20 22 27 32 36 37 35 36 38 36 31 28 25 25 28 30 31 33 30 24 29 36 33 27 26 23 19 18 17 15 16 15
37 35 33 33 33 31 30 30 30 32 35 34 30 29 31 33 33 33 32 31 31 31 31 30 29 27 27 27 28 28 27 29 30 32 33 33 30 30 29 25 22 24 24 24 25 26 27 29 29 30 32 32 31 32 29 24 24 29 32 33 30 24 26 32 31 26 24 22 18 16 15 14 14 14
34 30 27 26 28 27 25 24 25 26 29 30 26 24 24 25 26 27 27 28 29 30 30 30 29 28 27 26 26 26 26 27 28 31 33 32 30 29 27 23 21 25 27 28 28 28 27 27 26 25 25 25 26 29 30 26 25 29 31 31 31 28 25 26 26 22 20 19 16 14 14 13 13 14
30 26 23 22 23 24 22 21 23 24 26 28 26 23 23 24 24 25 26 28 30 30 29 29 28 28 27 26 26 27 27 26 26 28 29 29 29 29 27 23 21 23 27 28 29 30 30 30 29 24 18 16 16 17 22 25 26 28 28 26 26 27 24 21 21 19 16 15 14 14 13 13 13 13
25 24 23 21 21 22 21 21 23 24 24 27 27 24 23 22 23 26 28 30 31 29 27 27 26 26 26 27 27 28 28 26 25 25 25 26 26 25 23 22 23 25 27 28 30 32 32 33 33 26 13 6 7 8 13 20 24 26 28 26 23 23 23 19 18 17 16 14 14 14 13 13 13 13
23 24 25 24 25 25 24 23 24 24 24 26 28 25 21 20 20 24 27 29 30 29 27 26 25 25 26 26 26 26 27 27 26 25 25 25 24 22 20 20 21 24 25 27 29 32 33 32 32 27 14 5 5 6 8 15 21 24 25 26 24 22 22 19 17 16 15 14 14 14 13 12 12 12
23 24 24 24 25 26 26 25 25 24 25 25 26 24 21 21 21 22 24 25 25 26 26 25 25 25 26 26 25 25 25 25 25 24 25 25 24 22 21 19 20 22 24 24 26 29 31 30 30 27 19 9 7 8 7 9 17 23 24 24 24 23 21 20 18 17 16 14 13 12 11 11 12 12
26 25 25 25 26 27 27 27 26 26 26 26 25 24 23 23 22 21 22 23 23 23 24 24 24 25 26 27 28 27 26 26 24 23 25 26 26 25 23 21 21 22 22 22 23 25 27 27 26 27 23 15 10 13 14 13 18 24 25 23 22 21 20 19 18 17 15 13 11 10 9 9 11 13
29 28 28 29 29 29 27 26 26 26 25 26 26 25 24 23 22 21 21 22 23 23 25 26 26 26 26 27 28 27 27 28 28 27 27 27 27 26 25 22 22 22 21 20 22 24 25 26 27 27 25 18 12 15 18 15 13 18 21 19 18 18 17 17 17 15 13 11 8 7 6 7 10 11
27 28 29 29 28 27 25 24 24 24 24 25 25 25 24 23 22 21 22 23 24 25 26 26 27 27 27 28 30 29 26 26 26 25 26 25 24 25 25 22 21 21 19 17 20 23 24 26 27 25 23 19 15 15 14 10 8 13 20 19 15 13 12 13 14 13 10 8 6 4 4 6 9 11
26 26 29 30 26 23 22 22 23 23 23 24 24 24 25 25 24 23 23 24 25 26 26 25 27 28 28 29 31 30 27 25 24 23 24 24 22 22 23 21 20 21 19 17 20 23 23 24 25 24 22 22 21 16 9 5 8 14 19 19 17 14 11 9 9 8 7 6 6 5 4 3 4 6
28 27 29 30 24 20 21 21 21 22 22 23 25 26 25 24 24 23 23 23 23 24 24 24 25 26 26 26 28 27 26 25 25 24 25 25 24 23 23 22 22 22 21 19 20 23 24 25 27 27 25 24 21 15 9 10 14 16 17 17 17 15 13 11 9 7 5 5 5 5 5 5 4 5
29 29 29 29 24 16 18 20 22 23 24 25 26 25 24 24 24 23 22 22 22 22 21 21 22 22 23 24 25 24 23 24 26 26 26 26 26 25 23 23 22 21 20 21 21 22 24 25 27 27 25 22 19 16 15 17 18 17 16 16 15 14 13 12 10 8 7 7 6 6 7 9 10 12
31 31 29 29 27 21 15 14 15 19 22 23 22 22 21 20 19 18 18 18 19 20 20 21 22 22 24 25 25 24 23 24 25 25 24 24 24 23 22 23 23 21 21 23 23 22 22 23 23 23 22 19 18 18 19 20 20 18 17 16 14 11 10 8 6 6 7 7 7 6 7 9 11 14
Wind_Direction
279 276 271 266 262 261 259 255 252 250 247 245 243 238 231 227 231 239 237 229 222 224 223 224 228 227 227 229 229 229 232 233 231 229 230 229 229 228 228 229 231 233 233 231 228 226 223 221 222 220 217 217 215 212 211 209 210 213 215 213 207 197 188 182 181 185 182 176 169 168 168 155 139 130
283 281 278 274 270 266 263 260 257 253 250 248 245 243 238 233 231 235 244 232 220 220 222 224 227 228 226 226 227 228 230 231 230 229 229 229 228 227 226 227 229 230 231 231 228 226 223 221 222 223 221 220 220 218 217 217 220 223 223 217 208 199 193 189 188 187 186 183 181 179 171 157 144 137
287 284 281 279 276 273 268 265 262 257 254 251 249 247 243 237 235 235 238 245 230 222 224 228 231 231 229 225 223 225 228 230 229 228 229 230 228 226 225 226 227 229 230 229 228 226 223 222 223 225 224 223 222 221 220 221 225 227 225 219 212 205 198 200 206 207 208 209 200 189 173 156 152 147
290 286 284 281 280 279 275 270 266 262 258 255 252 251 248 243 241 237 235 246 242 230 234 239 237 234 231 225 221 221 225 227 227 227 229 229 227 225 225 225 225 227 229 229 229 227 224 222 223 225 225 224 223 223 221 221 225 228 227 222 215 208 206 211 217 222 223 218 207 193 179 164 164 160
294 290 287 285 283 281 278 274 270 266 262 259 255 253 250 247 245 241 236 241 251 239 236 239 238 234 228 223 220 219 221 223 224 225 227 228 227 225 224 224 224 225 227 228 229 229 226 224 223 224 225 225 225 224 222 222 224 226 227 224 215 210 212 216 219 224 225 218 209 196 182 174 178 172
295 292 288 287 286 284 279 276 273 269 264 261 258 254 252 250 248 244 239 240 248 244 233 231 232 230 223 220 220 218 220 223 222 220 222 225 226 226 224 223 222 224 226 228 229 229 228 226 225 225 225 225 225 224 223 223 224 225 227 225 219 215 217 217 216 220 220 212 205 197 188 187 190 184
293 292 289 287 287 286 282 277 275 271 267 262 258 256 254 252 250 247 243 241 242 244 237 229 226 223 218 218 220 220 221 223 220 218 220 222 223 224 224 223 222 222 224 226 229 230 229 228 227 226 225 225 225 224 224 225 227 227 227 226 223 222 223 222 220 220 217 209 202 199 198 196 193 193
293 289 286 285 286 284 282 278 275 272 269 264 259 257 255 252 252 250 246 244 243 242 239 230 225 223 220 220 221 219 217 218 219 219 219 219 220 222 223 223 222 222 224 226 229 231 231 229 228 227 225 225 225 224 224 225 227 228 228 227 226 225 226 226 226 224 219 212 205 203 205 201 200 204
294 289 285 283 283 282 278 277 275 272 269 265 261 258 256 253 252 251 248 246 245 243 240 235 227 223 222 220 219 216 212 212 216 218 218 218 219 220 221 223 223 222 224 226 229 231 232 231 230 228 227 226 224 223 224 225 227 228 229 228 228 227 227 228 228 225 222 220 216 213 209 204 208 212
294 290 287 283 281 279 275 273 273 270 268 266 262 260 258 255 252 251 248 246 245 243 243 241 229 220 218 216 215 215 212 209 209 211 214 218 218 218 220 222 223 223 223 225 227 229 230 230 229 229 228 226 224 223 224 225 226 228 230 229 229 229 229 229 229 226 224 224 225 223 216 210 211 212
293 290 287 285 281 277 274 272 270 268 266 264 262 261 260 257 253 250 248 245 243 242 244 241 231 222 219 216 216 217 213 211 211 207 204 208 214 217 220 221 222 222 222 223 225 228 230 230 229 229 228 227 224 222 223 225 226 228 230 230 231 230 229 229 228 226 226 227 227 226 222 217 212 209
289 289 287 285 283 279 275 272 269 266 264 262 261 260 258 256 253 250 248 244 241 240 242 241 233 224 217 214 215 213 205 206 213 209 202 203 209 214 218 220 220 220 219 219 221 224 227 228 228 227 226 225 223 222 223 224 226 228 229 230 231 230 228 226 225 225 226 226 226 226 224 220 216 209
282 283 283 282 281 281 278 275 272 268 265 261 260 259 256 253 251 250 248 244 240 238 239 240 232 219 214 213 208 202 200 204 210 207 204 209 213 212 216 219 219 218 216 215 216 219 222 224 225 223 222 222 221 221 222 223 225 227 229 230 230 228 225 223 223 224 225 225 224 225 223 220 218 214
277 277 277 277 278 278 278 276 274 270 267 262 260 259 256 252 249 248 247 244 240 237 237 238 230 217 217 217 209 206 209 209 207 202 202 209 212 208 213 221 221 219 215 212 214 218 220 221 222 222 221 221 220 220 221 223 225 226 228 229 228 226 223 221 221 223 225 225 225 225 224 221 219 218
278 277 276 276 277 276 275 274 273 271 269 265 262 260 257 253 250 246 245 244 242 239 238 238 233 224 226 224 216 214 214 209 205 204 203 204 202 198 204 217 220 217 214 209 212 218 220 220 221 222 222 221 220 220 222 223 225 225 226 227 226 223 220 219 220 222 225 227 226 225 225 222 220 220
277 277 277 275 275 274 274 273 271 270 269 267 264 261 258 254 251 248 245 244 243 241 241 241 237 232 233 231 221 216 214 209 207 207 204 204 203 202 205 210 214 215 210 205 209 218 219 218 219 221 222 221 221 222 222 222 223 224 224 225 224 221 219 218 219 222 225 226 226 225 224 222 219 219
274 274 274 273 272 272 272 271 269 266 266 265 264 262 258 254 252 249 247 245 244 242 241 243 242 238 237 235 228 220 215 209 205 205 206 208 208 208 212 215 216 214 206 201 206 216 217 215 215 219 222 222 221 221 221 221 221 222 222 221 221 219 219 219 219 221 223 223 222 221 221 219 217 217
274 273 272 271 271 271 270 268 266 264 263 262 260 258 256 253 251 248 247 245 244 243 241 242 245 245 242 241 238 229 219 212 209 207 209 210 210 213 220 222 221 220 211 204 202 211 215 211 211 216 220 220 220 220 220 218 218 219 218 218 217 219 219 219 219 221 220 219 219 218 218 217 217 218
275 274 272 270 269 269 268 266 264 263 262 260 257 255 252 251 250 248 246 244 243 242 240 240 244 247 247 246 246 240 226 219 218 217 217 217 215 217 223 225 223 223 217 206 200 207 211 205 206 214 217 217 218 218 217 215 214 215 215 214 215 216 217 218 219 220 218 216 216 216 216 216 217 218
277 276 275 273 271 269 267 265 263 262 261 258 255 253 251 250 249 248 248 247 245 243 242 242 243 245 246 245 246 246 238 227 222 220 221 220 217 215 220 222 218 218 216 208 204 208 205 200 204 212 212 212 213 213 212 211 211 212 211 211 212 213 214 216 218 218 216 214 215 215 215 216 218 218
279 278 277 276 274 271 268 265 263 261 258 256 254 252 251 249 248 249 250 249 247 246 245 245 246 247 246 244 243 244 245 238 224 214 213 215 212 210 214 219 215 213 212 208 206 208 205 199 201 205 205 207 209 209 208 207 206 208 208 207 209 210 211 214 215 214 214 213 214 214 214 217 218 218
280 279 277 275 274 272 270 267 264 259 255 253 252 250 250 248 246 247 249 249 247 246 246 246 247 248 247 245 242 239 241 241 227 215 214 214 209 207 215 219 212 210 213 209 204 206 208 197 193 189 188 200 208 208 206 203 200 201 202 203 206 208 209 210 210 210 211 211 212 213 215 217 218 218
280 278 276 275 273 273 272 269 266 260 255 252 250 249 248 246 245 247 247 246 243 242 242 242 243 245 245 244 242 238 236 236 229 222 221 217 208 208 217 217 204 204 219 210 201 200 200 188 185 182 172 180 213 210 205 202 199 196 196 198 202 205 206 207 207 208 209 210 211 214 216 216 217 218
281 278 277 276 275 274 273 271 268 264 257 252 249 248 245 243 245 248 248 244 242 240 240 240 240 242 243 241 241 238 235 233 229 226 225 221 214 214 216 214 208 215 224 207 196 196 196 185 186 189 185 175 197 199 200 202 199 195 194 196 198 201 203 203 203 205 208 210 211 214 215 215 217 219
280 279 278 277 276 275 273 271 269 266 261 255 249 245 243 243 246 248 248 245 243 240 239 240 240 241 241 239 238 237 234 232 230 227 225 223 221 220 219 216 215 222 226 209 198 197 193 185 186 191 196 200 174 174 188 197 197 195 195 196 198 198 197 198 199 203 207 209 210 212 213 213 216 219
279 279 278 277 276 276 274 271 268 265 262 258 251 245 243 244 245 247 247 245 244 240 237 237 238 237 238 236 234 233 232 231 230 229 227 225 224 225 224 223 223 225 226 214 201 197 194 190 189 187 193 200 177 164 174 187 195 196 196 199 201 200 196 196 199 203 206 208 208 210 211 211 212 214
286 286 284 283 282 281 278 273 269 264 261 259 254 248 244 243 243 244 244 243 241 238 235 234 234 235 234 232 232 231 230 230 229 228 228 227 225 226 228 229 231 232 231 219 204 199 198 197 194 192 193 190 172 165 176 181 187 192 194 199 202 200 198 200 202 204 207 208 206 206 206 206 206 207
287 287 287 286 284 282 282 280 275 267 261 257 254 249 245 243 242 241 239 238 236 233 231 230 231 233 232 231 231 232 231 231 229 228 229 229 227 227 229 230 232 234 234 226 211 203 203 202 200 200 198 191 180 179 185 181 181 185 186 189 194 196 197 199 202 203 204 204 202 202 203 204 204 206
283 284 285 285 283 280 281 283 282 275 263 256 254 250 245 242 241 239 236 234 232 228 226 227 230 232 233 232 234 235 234 232 229 225 225 226 225 225 226 226 227 229 230 228 217 207 205 206 205 202 199 196 193 189 183 178 180 182 180 179 184 191 195 196 199 200 199 199 201 202 204 205 205 208
280 282 284 286 284 282 282 285 289 286 272 257 251 249 245 242 240 239 236 232 228 226 226 226 227 231 234 235 236 236 232 227 224 220 217 216 215 214 214 213 216 219 220 220 215 208 205 206 205 199 195 196 198 193 184 176 174 178 182 179 175 180 191 194 195 196 197 199 202 204 205 204 206 211
277 278 279 281 282 283 284 284 287 291 285 266 248 242 240 240 239 239 237 233 229 228 227 226 226 230 233 233 232 230 224 221 219 216 211 207 205 204 202 199 199 202 202 203 204 203 202 203 203 198 193 192 192 189 184 177 171 173 181 181 174 173 185 189 191 195 198 198 200 201 203 205 209 216
273 274 275 278 280 281 284 285 286 291 291 278 254 237 233 234 236 238 237 234 231 230 228 227 226 227 228 226 224 221 217 216 216 211 206 204 200 195 192 189 185 181 181 185 191 195 199 201 200 197 194 192 189 184 178 175 174 173 176 180 180 179 182 185 188 191 191 191 193 197 203 210 214 217
277 278 277 279 281 282 284 287 288 290 290 281 262 243 232 227 228 231 233 232 231 229 227 225 224 222 220 219 218 214 211 212 211 206 202 201 196 190 190 191 187 179 173 174 179 184 189 193 194 193 193 194 193 188 179 172 175 177 176 179 182 178 175 179 183 184 185 189 194 197 203 211 215 218
285 285 282 280 282 282 282 283 284 287 288 281 267 251 242 235 229 228 231 233 234 232 228 224 222 219 215 213 209 206 206 208 206 202 200 198 191 187 189 190 187 182 176 172 173 175 177 180 181 181 183 187 190 191 186 178 176 178 180 182 184 180 176 180 184 186 190 195 196 196 201 210 218 226
284 281 278 274 275 275 274 276 278 281 287 284 270 253 246 246 242 236 235 235 235 233 229 226 222 218 213 208 204 203 203 202 197 195 195 194 190 190 191 187 180 177 173 169 170 172 173 172 168 163 164 171 177 190 198 193 184 179 180 184 188 186 183 186 189 191 193 195 195 196 201 212 224 234
283 277 272 267 268 269 268 271 274 275 281 285 277 256 239 238 242 239 236 235 234 231 228 226 222 219 214 207 202 201 199 194 189 186 187 189 189 190 190 185 179 176 173 171 171 172 173 173 170 163 154 151 163 189 207 202 196 191 187 187 190 190 188 187 187 188 191 193 193 195 203 217 231 242
282 275 271 266 263 264 262 264 269 270 272 280 282 266 240 231 240 243 240 237 233 230 229 228 223 219 214 207 200 197 193 188 183 181 182 185 186 186 186 183 178 176 176 174 173 173 174 174 174 171 167 158 172 190 195 194 199 203 199 192 190 191 191 187 184 188 195 196 196 200 210 227 243 254
280 274 271 266 261 259 258 257 261 264 265 272 279 273 251 235 238 244 245 241 234 229 228 229 224 217 211 203 194 189 186 184 183 181 180 181 182 184 185 181 176 176 175 174 174 176 177 176 177 179 179 175 182 189 174 176 197 206 205 201 196 191 190 190 189 191 195 195 198 206 219 238 255 265
285 279 273 268 263 258 254 252 253 257 260 264 269 270 259 243 236 238 241 239 236 231 228 228 224 215 206 199 192 186 182 180 180 181 182 183 184 185 184 180 176 174 172 173 175 177 179 181 183 186 187 188 196 194 181 177 193 198 198 203 202 195 191 193 194 194 194 195 203 215 231 253 267 273
291 286 280 273 266 259 253 250 250 252 253 255 259 264 258 242 231 231 235 234 233 231 227 224 219 208 199 193 189 184 182 183 184 184 184 185 185 185 184 180 176 172 171 173 176 179 184 189 188 188 191 194 198 190 175 164 168 178 182 195 208 206 200 197 193 191 194 199 207 223 244 267 279 286
295 293 289 281 270 259 252 247 246 248 249 250 254 259 254 239 229 232 235 232 229 226 220 213 206 198 193 190 187 184 184 186 186 185 184 183 183 183 181 177 173 172 173 175 177 181 189 192 188 187 189 184 168 159 156 142 138 160 170 179 191 195 195 197 196 197 199 198 198 218 252 278 290 294
301 300 300 295 280 262 251 247 246 248 251 251 254 257 252 242 236 237 236 231 225 219 210 203 197 194 191 189 188 186 185 184 182 180 179 177 175 175 176 175 173 174 176 176 179 181 183 182 180 179 177 168 157 150 150 150 149 156 161 165 169 172 174 183 193 200 201 196 191 203 230 265 291 291
311 310 311 309 295 265 249 249 249 249 251 253 256 256 247 236 231 232 231 226 218 210 204 199 195 192 190 188 187 186 184 180 176 174 174 175 174 173 174 176 175 175 175 172 170 169 167 167 169 168 165 163 162 156 147 146 149 152 158 162 166 173 177 177 179 185 192 204 214 221 231 241 249 254
320 318 318 323 321 292 260 254 253 252 253 255 254 248 235 225 223 225 222 217 209 203 199 194 189 186 184 182 181 181 180 177 175 173 173 175 176 174 173 171 169 168 165 158 154 156 159 161 164 164 164 166 168 160 147 144 146 150 156 160 165 175 183 185 191 199 204 213 226 239 248 251 254 260
327 328 328 336 347 347 330 305 284 269 263 257 248 237 227 224 223 219 213 208 202 195 190 185 181 180 178 176 174 174 174 172 171 171 170 170 171 169 167 164 161 158 158 155 152 153 155 157 159 162 162 163 166 161 154 150 149 150 154 159 165 174 183 193 211 233 245 251 259 272 279 275 273 275